Location: Frederickton
(49.4167°N, 54.3667°W)
Time: 10:35:40
(UTC+00:00)

Envisat - Visible Passes

Search period start: 20 May 2022 00:00
Search period end: 30 May 2022 00:00
Orbit: 764 x 765 km, 98.2° (Epoch: 19 May)

Date Brightness Start Highest point End Pass type
(mag) Time Alt. Az. Time Alt. Az. Time Alt. Az.
20 May 5.7 06:55:12 10° NE 06:57:59 15° E 07:00:44 10° ESE visible
23 May 5.9 06:44:24 10° ENE 06:46:03 11° E 06:47:42 10° ESE visible
28 May 5.7 06:56:42 10° NE 06:59:41 15° E 07:02:38 10° ESE visible
